Terminal Aerodrome Forecast
Issued by NWS Greer, SC

Home | Current Version | Previous Version | Text Only | Print | Product List | Glossary On
Versions: 1 2 3 4 5 6 7 8 9 10 11 12 13 14 15 16 17 18 19 20 21 22 23 24 25 26 27 28 29 30 31 32 33 34 35 36 37 38 39 40 41 42 43 44 45 46
000
FTUS42 KGSP 172334
TAFCLT
TAF
KCLT 172334Z 1800/1824 36003KT P6SM FEW250
     FM181100 01004KT P6SM BKN100
     FM181700 15003KT P6SM BKN080
     FM182000 22003KT P6SM BKN080=

USA.gov is the U.S. government's official web portal to all federal, state and local government web resources and services.